Weather in Usharal

Kazakhstan     46°10′26″N   80°56′48″E
temp.,
°C
wind,
m/s
gust,
m/s
humid.,
%
clouds,
%
prec.,
mm/h
press.,
hPa
HPBL,
m
16 june, wed
wed1600:00+16sse22420 0.0 101111
03:00+14se12540 0.0 101111
06:00+16se22530 0.0 101215
09:00+24ene34360 0.0 1012568
12:00+28ene44240 0.0 10101168
15:00+30ene331998 0.0 10091289
18:00+29e2222100 0.0 1008786
21:00+22s1134100 0.0 100911
17 june, thu
thu1700:00+20ssw2238100 0.0 100911
03:00+20wsw2242100 0.0 100914
06:00+20ssw114797 0.0 100913
09:00+25n1134100 0.0 1009412
12:00+29ne112592 0.0 1008951
15:00+33ne221898 0.0 10062225
18:00+32ene1220100 0.0 10061450
21:00+24sw3439100 0.0 100659
18 june, fri
fri1800:00+20s114489 0.0 100711
03:00+19s1143100 0.0 100711
06:00+21sw1243100 0.0 100713
09:00+26ese2232100 0.0 1007453
12:00+31ene2322100 0.0 10051471
15:00+34e34175 0.0 10033490
18:00+30sse4529100 0.0 1004559
21:00+22ssw44455 0.1 100449
19 june, sat
sat1900:00+21sw34332 0.1 100447
03:00+18se33440 0.0 100426
06:00+21ssw014019 0.0 100411
09:00+28e32260 0.0 1003463
12:00+34ene451827 0.0 10011912
15:00+36wnw371380 0.0 9984325
18:00+30sw6102298 0.0 999610
21:00+25ssw71534100 0.0 1000397
20 june, sun
sun2000:00+25sw111734100 0.1 1001983
03:00+17wsw111959100 0.1 10091544
06:00+15wsw91755100 0.1 10141815
09:00+16w10154389 0.0 10162114
12:00+20wnw10132960 0.0 10162761
15:00+21wnw10122498 0.0 10153022
18:00+21wnw912201 0.0 10152489
21:00+14wsw33290 0.0 101618